Location: Bonac
(42.8765°N, 0.9753°E)
Time: 22:45:18
(UTC+00:00)

Cosmos 2056 Rocket - Visible Passes

Search period start: 18 April 2026 00:00
Search period end: 28 April 2026 00:00
Orbit: 737 x 796 km, 74.0° (Epoch: 18 April)

Date Brightness Start Highest point End Pass type
(mag) Time Alt. Az. Time Alt. Az. Time Alt. Az.
18 Apr 5.3 00:46:25 26° NNW 00:46:25 26° NNW 00:49:36 10° N visible
18 Apr 6.0 22:29:06 12° NE 22:29:06 12° NE 22:29:37 10° NE visible
19 Apr 5.1 00:09:19 32° N 00:09:19 32° N 00:12:26 10° N visible
19 Apr 5.1 23:32:11 33° NNE 23:32:11 33° NNE 23:35:04 10° NNE visible
20 Apr 5.9 01:12:23 13° NW 01:12:34 13° NW 01:15:06 10° NNW visible
20 Apr 5.2 22:55:01 27° NE 22:55:01 27° NE 22:57:31 10° NNE visible
21 Apr 5.6 00:35:13 20° NW 00:35:13 20° NW 00:38:40 10° N visible
21 Apr 5.4 22:17:49 20° NE 22:17:49 20° NE 22:19:44 10° NE visible
21 Apr 5.2 23:58:00 29° NW 23:58:00 29° NW 00:01:43 10° N visible
22 Apr 5.7 21:40:33 14° ENE 21:40:33 14° ENE 21:41:36 10° NE visible
22 Apr 4.7 23:20:45 40° NNW 23:20:45 40° NNW 23:24:32 10° N visible
23 Apr 4.4 22:43:27 45° NNE 22:43:27 45° NNE 22:47:08 10° NNE visible
24 Apr 6.0 00:23:38 13° WNW 00:24:35 14° NW 00:27:21 10° NNW visible
24 Apr 4.5 22:06:05 38° NE 22:06:05 38° NE 22:09:34 10° NNE visible
24 Apr 5.5 23:46:16 21° WNW 23:46:42 22° NW 23:50:49 10° N visible
25 Apr 4.8 21:28:39 27° ENE 21:28:39 27° ENE 21:31:45 10° NE visible
25 Apr 4.9 23:08:50 34° WNW 23:08:56 34° WNW 23:13:50 10° N visible
26 Apr 5.2 20:51:08 18° ENE 20:51:08 18° ENE 20:53:33 10° NE visible
26 Apr 4.1 22:31:18 55° WNW 22:31:18 55° WNW 22:36:37 10° NNE visible
27 Apr 5.6 20:13:30 11° E 20:13:30 11° E 20:14:06 10° ENE visible
27 Apr 3.4 21:53:40 87° S 21:53:46 89° ESE 21:59:12 10° NNE visible
27 Apr 6.1 23:33:49 11° W 23:36:36 15° NW 23:39:34 10° NNW visible
